TimeEDT,TemperatureF,Dew PointF,Humidity,Sea Level PressureIn,VisibilityMPH,Wind Direction,Wind SpeedMPH,Gust SpeedMPH,PrecipitationIn,Events,Conditions,WindDirDegrees,DateUTC
12:15 AM,55.4,33.8,44,30.00,10.0,South,11.5,18.4,N/A,,Clear,170,2013-03-10 05:15:00
12:35 AM,55.4,33.8,44,29.99,10.0,South,11.5,18.4,N/A,,Clear,170,2013-03-10 05:35:00
12:55 AM,55.4,33.8,44,29.98,10.0,South,12.7,20.7,N/A,,Clear,170,2013-03-10 05:55:00
1:15 AM,55.4,33.8,44,29.98,10.0,SSE,12.7,-,N/A,,Clear,160,2013-03-10 06:15:00
1:35 AM,55.4,33.8,44,29.98,10.0,South,10.4,17.3,N/A,,Clear,170,2013-03-10 06:35:00
1:55 AM,55.4,33.8,44,29.98,10.0,South,10.4,17.3,N/A,,Clear,170,2013-03-10 06:55:00
3:15 AM,53.6,33.8,47,29.97,10.0,South,11.5,16.1,N/A,,Clear,180,2013-03-10 07:15:00
3:35 AM,53.6,33.8,47,29.97,10.0,South,11.5,17.3,N/A,,Clear,170,2013-03-10 07:35:00
3:55 AM,53.6,33.8,47,29.96,10.0,South,9.2,-,N/A,,Clear,170,2013-03-10 07:55:00
4:15 AM,53.6,33.8,47,29.96,10.0,South,10.4,-,N/A,,Clear,170,2013-03-10 08:15:00
4:35 AM,53.6,33.8,47,29.95,10.0,South,11.5,17.3,N/A,,Clear,170,2013-03-10 08:35:00
4:55 AM,53.6,33.8,47,29.95,10.0,SSE,10.4,-,N/A,,Clear,160,2013-03-10 08:55:00
5:15 AM,53.6,33.8,47,29.95,10.0,SSE,12.7,18.4,N/A,,Clear,160,2013-03-10 09:15:00
5:35 AM,53.6,33.8,47,29.94,10.0,SSE,12.7,17.3,N/A,,Clear,160,2013-03-10 09:35:00
5:55 AM,53.6,33.8,47,29.95,10.0,SSE,12.7,17.3,N/A,,Clear,160,2013-03-10 09:55:00
6:15 AM,53.6,33.8,47,29.94,10.0,SSE,13.8,20.7,N/A,,Clear,160,2013-03-10 10:15:00
6:35 AM,53.6,33.8,47,29.95,10.0,SSE,12.7,19.6,N/A,,Scattered Clouds,160,2013-03-10 10:35:00
6:55 AM,53.6,33.8,47,29.96,10.0,South,16.1,20.7,N/A,,Scattered Clouds,180,2013-03-10 10:55:00
7:15 AM,55.4,33.8,44,29.95,10.0,South,12.7,20.7,N/A,,Partly Cloudy,170,2013-03-10 11:15:00
8:35 AM,55.4,35.6,47,29.95,10.0,SSE,15.0,21.9,N/A,,Clear,160,2013-03-10 12:35:00
8:55 AM,55.4,35.6,47,29.95,10.0,South,12.7,23.0,N/A,,Clear,170,2013-03-10 12:55:00
9:15 AM,55.4,35.6,47,29.95,10.0,South,16.1,21.9,N/A,,Clear,170,2013-03-10 13:15:00
9:35 AM,57.2,35.6,44,29.96,10.0,South,17.3,24.2,N/A,,Clear,170,2013-03-10 13:35:00
9:55 AM,57.2,35.6,44,29.97,10.0,South,17.3,26.5,N/A,,Clear,170,2013-03-10 13:55:00
10:15 AM,57.2,35.6,44,29.95,10.0,SSE,13.8,23.0,N/A,,Clear,160,2013-03-10 14:15:00
10:35 AM,57.2,35.6,44,29.95,10.0,South,15.0,26.5,N/A,,Clear,170,2013-03-10 14:35:00
10:55 AM,57.2,35.6,44,29.95,10.0,South,13.8,26.5,N/A,,Clear,170,2013-03-10 14:55:00
11:15 AM,57.2,35.6,44,29.94,10.0,SSE,17.3,24.2,N/A,,Clear,160,2013-03-10 15:15:00
11:35 AM,59.0,35.6,42,29.93,10.0,South,20.7,26.5,N/A,,Clear,170,2013-03-10 15:35:00
11:55 AM,60.8,35.6,39,29.94,10.0,South,18.4,26.5,N/A,,Clear,170,2013-03-10 15:55:00
12:15 PM,60.8,35.6,39,29.95,10.0,South,18.4,25.3,N/A,,Clear,170,2013-03-10 16:15:00
12:35 PM,60.8,35.6,39,29.93,10.0,SSE,17.3,23.0,N/A,,Clear,160,2013-03-10 16:35:00
12:55 PM,62.6,37.4,39,29.94,10.0,South,18.4,27.6,N/A,,Clear,170,2013-03-10 16:55:00
1:15 PM,62.6,37.4,39,29.92,10.0,SSE,19.6,27.6,N/A,,Clear,160,2013-03-10 17:15:00
1:35 PM,62.6,37.4,39,29.92,10.0,South,16.1,25.3,N/A,,Clear,170,2013-03-10 17:35:00
1:55 PM,64.4,37.4,37,29.90,10.0,SSE,18.4,28.8,N/A,,Clear,160,2013-03-10 17:55:00
2:15 PM,64.4,37.4,37,29.86,10.0,SSE,20.7,25.3,N/A,,Clear,160,2013-03-10 18:15:00
2:55 PM,64.4,37.4,37,29.87,10.0,SSE,18.4,27.6,N/A,,Clear,160,2013-03-10 18:55:00
3:15 PM,66.2,39.2,37,29.87,10.0,South,18.4,29.9,N/A,,Clear,170,2013-03-10 19:15:00
3:35 PM,66.2,39.2,37,29.85,10.0,South,17.3,34.5,N/A,,Clear,170,2013-03-10 19:35:00
4:15 PM,64.4,37.4,37,29.83,10.0,SSE,19.6,26.5,N/A,,Clear,160,2013-03-10 20:15:00
4:35 PM,64.4,35.6,34,29.81,10.0,SSE,15.0,21.9,N/A,,Clear,150,2013-03-10 20:35:00
4:55 PM,64.4,35.6,34,29.81,10.0,SSE,13.8,19.6,N/A,,Clear,150,2013-03-10 20:55:00
5:15 PM,64.4,35.6,34,29.79,10.0,SSE,13.8,25.3,N/A,,Clear,150,2013-03-10 21:15:00
5:35 PM,64.4,35.6,34,29.78,10.0,SE,17.3,23.0,N/A,,Clear,130,2013-03-10 21:35:00
5:55 PM,64.4,35.6,34,29.78,10.0,SSE,18.4,25.3,N/A,,Clear,150,2013-03-10 21:55:00
6:15 PM,64.4,35.6,34,29.77,10.0,SSE,15.0,24.2,N/A,,Clear,150,2013-03-10 22:15:00
6:35 PM,64.4,35.6,34,29.76,10.0,SSE,13.8,23.0,N/A,,Clear,150,2013-03-10 22:35:00
6:55 PM,64.4,37.4,37,29.76,10.0,SSE,13.8,25.3,N/A,,Scattered Clouds,160,2013-03-10 22:55:00
7:15 PM,64.4,37.4,37,29.76,10.0,SSE,16.1,27.6,N/A,,Mostly Cloudy,150,2013-03-10 23:15:00
7:35 PM,64.4,37.4,37,29.76,10.0,SSE,13.8,25.3,N/A,,Overcast,160,2013-03-10 23:35:00
7:55 PM,64.4,37.4,37,29.76,10.0,SSE,15.0,25.3,N/A,,Mostly Cloudy,150,2013-03-10 23:55:00
8:15 PM,64.4,37.4,37,29.75,10.0,SSE,16.1,23.0,N/A,,Mostly Cloudy,150,2013-03-11 00:15:00
8:35 PM,64.4,37.4,37,29.80,10.0,South,15.0,21.9,N/A,,Overcast,190,2013-03-11 00:35:00
8:55 PM,59.0,42.8,55,29.82,10.0,South,15.0,21.9,N/A,,Overcast,190,2013-03-11 00:55:00
9:15 PM,59.0,42.8,55,29.83,10.0,SSW,15.0,25.3,N/A,,Overcast,200,2013-03-11 01:15:00
9:35 PM,57.2,42.8,59,29.83,10.0,WSW,10.4,-,N/A,,Mostly Cloudy,240,2013-03-11 01:35:00
10:15 PM,55.4,46.4,72,29.81,10.0,South,8.1,-,N/A,,Mostly Cloudy,180,2013-03-11 02:15:00
10:35 PM,55.4,46.4,72,29.82,10.0,South,6.9,-,N/A,,Mostly Cloudy,170,2013-03-11 02:35:00
10:55 PM,55.4,46.4,72,29.82,10.0,SSE,8.1,-,N/A,,Overcast,160,2013-03-11 02:55:00
11:15 PM,53.6,48.2,82,29.80,9.0,SE,12.7,-,0.02,,Overcast,140,2013-03-11 03:15:00
11:35 PM,53.6,48.2,82,29.78,10.0,SE,12.7,17.3,0.02,,Scattered Clouds,140,2013-03-11 03:35:00
11:55 PM,53.6,48.2,82,29.79,10.0,SSE,9.2,-,0.02,,Partly Cloudy,150,2013-03-11 03:55:00
12:15 AM,53.6,48.2,82,29.77,10.0,SSE,9.2,-,N/A,,Mostly Cloudy,150,2013-03-11 04:15:00
12:35 AM,53.6,48.2,82,29.78,10.0,SSE,5.8,-,N/A,,Overcast,160,2013-03-11 04:35:00
12:55 AM,53.6,48.2,82,29.79,10.0,South,6.9,-,N/A,,Overcast,170,2013-03-11 04:55:00